Regional Weather Roundup
Issued by NWS Cleveland, OH

Home | Current Version | Previous Version | Graphics & Text | Print | Product List | Glossary On
Versions: 1 2 3 4 5 6 7 8 9 10 11 12 13 14 15 16 17 18 19 20 21 22 23 24 25 26 27 28 29 30 31 32 33 34 35 36 37 38 39 40 41 42 43 44 45 46 47 48 49 50
000
ASUS41 KCLE 211810
RWRCLE
OHIO REGIONAL WEATHER ROUNDUP
NATIONAL WEATHER SERVICE WILMINGTON, OH
200 PM EDT SAT OCT 21 2017

NOTE: "FAIR" INDICATES FEW OR NO CLOUDS BELOW 12,000 FEET WITH NO
SIGNIFICANT WEATHER AND/OR OBSTRUCTIONS TO VISIBILITY.

OHZ001>008-015>018-024>027-034-035-043-044-211900-
   NORTHWEST OHIO

CITY           SKY/WX    TMP DP  RH WIND       PRES   REMARKS
DEFIANCE       FAIR      73  50  44 S8        30.18F
FINDLAY        FAIR      75  53  46 S6        30.19F
TOLEDO EXPRESS FAIR      73  56  54 S9        30.19F
TOLEDO EXEC    FAIR      74  54  49 S9        30.20F
LIMA           FAIR      77  52  41 S12       30.19F
$$

OHZ009>014-019>023-028>033-038-089-211900-
   NORTHEAST OHIO

CITY           SKY/WX    TMP DP  RH WIND       PRES   REMARKS
CLE-HOPKINS    PTSUNNY   74  47  38 S9        30.25F
CLE-LAKEFRONT  FAIR      73  46  38 S6        30.22F
CUY CO. ARPT   PTSUNNY   72  46  40 SE9       30.25F
LORAIN-ELYRIA  FAIR      72  46  39 S7        30.23F
ASHTABULA      FAIR      70  44  39 S6        30.27F
AKRON-CANTON   PTSUNNY   70  47  43 SE6       30.26F
WOOSTER        FAIR      73  46  38 S6        30.25F
MANSFIELD      FAIR      72  50  45 SW9       30.25F
YOUNGSTOWN     PTSUNNY   71  47  42 SE6       30.27F
$$

OHZ042-051>053-060>062-070>072-077>081-211900-
  SOUTHWEST OHIO

CITY           SKY/WX    TMP DP  RH WIND       PRES   REMARKS
CINC-COVINGTON CLOUDY    70  51  51 S7        30.23F
CINC-LUNKEN    FAIR      71  50  47 SW8       30.23F
HAMILTON       FAIR      72  51  47 W6        30.24F
DAYTON         PTSUNNY   70  52  52 S12       30.23F
WRIGHT-PAT AFB PTSUNNY   73  45  36 SW10      30.22F
DAYTON GENERAL FAIR      69  48  47 S8        30.23F
WILMINGTON     FAIR      71  48  43 SW14      30.23F HAZE
$$

OHZ036-037-039>041-045>050-054>059-063>069-073>076-082>088-211900-
  CENTRAL AND SOUTHEAST OHIO

CITY           SKY/WX    TMP DP  RH WIND       PRES   REMARKS
COLUMBUS       PTSUNNY   74  53  48 S7        30.23F
OSU AIRPORT    FAIR      72  54  53 S8        30.23F
BOLTON FIELD   SUNNY     73  54  49 S5        30.24F
RICKENBACK AFB FAIR      72  53  51 S7        30.23F
NEWARK         FAIR      73  49  42 S7        30.24F
MARION         FAIR      74  49  41 S9        30.23F
LANCASTER      FAIR      72  54  53 SW5       30.24F
ZANESVILLE     FAIR      72  51  47 VRB6      30.25F
NEW PHILLY     FAIR      69  50  50 SE6       30.26F
$$




USA.gov is the U.S. government's official web portal to all federal, state and local government web resources and services.